Location: Newark
(43.6583°N, 1.6617°E)
Time: 04:38:17
(UTC+00:00)

Vanguard 1 Rocket - Pass Details

Date: 28 August 2019
Orbit: 652 x 4225 km, 34.3° (Epoch: 15 September)

Event Time Altitude Azimuth Distance (km) Brightness Sun altitude
Rises 05:22:12 0° 259° (W) 3,180 9.5 1.0°
Reaches altitude 10° 05:24:55 10° 240° (WSW) 2,477 9.1 1.4°
Maximum altitude 05:28:57 19° 195° (SSW) 2,281 9.2 2.1°
Drops below altitude 10° 05:34:32 10° 153° (SSE) 3,589 10.7 3.1°
Sets 05:39:40 0° 139° (SE) 5,245 11.8 4.0°
